Change the Weather History Date:

Monday, February 25, 2013

  Actual Average Record
Temperature  
Mean Temperature 18 °F -  
Max Temperature 26 °F 21 °F 42 °F (1986)
Min Temperature 10 °F 7 °F -22 °F (1980)
Degree Days  
Heating Degree Days 47    
Moisture  
Dew Point 15 °F    
Average Humidity 90    
Maximum Humidity 100    
Minimum Humidity 74    
Precipitation  
Precipitation 0.00 in - - ()
Sea Level Pressure  
Sea Level Pressure 30.01 in    
Wind  
Wind Speed 9 mph (South)    
Max Wind Speed 13 mph    
Max Gust Speed -    
Visibility 7 miles    
Events      
Averages and records for this station are not official NWS values.
T = Trace of Precipitation, MM = Missing Value Source: NWS Daily Summary

Daily Weather History Graph

Daily Weather History Graph

Search for Another Location

Airport or City:

Trip Planner

Search our weather history database for the weather conditions in past years. The results will help you decide how hot, cold, wet, or windy it might be!

Date:

Astronomy

Feb. 25, 2013 Rise Set
Actual Time 7:12 AM CST 6:03 PM CST
Civil Twilight 6:41 AM CST 6:34 PM CST
Nautical Twilight 6:05 AM CST 7:10 PM CST
Astronomical Twilight 5:29 AM CST 7:46 PM CST
Moon 6:22 PM CST (2/25) 6:40 AM CST (2/25)
Length of Visible Light 11h 53m
Length of Day
10h 50m
Full, 100% of the Moon is Illuminated
Feb 25
Full
Feb 25
Full
Mar 4
Last Quarter
Mar 11
New
Mar 19
First Quarter

Hourly Weather History & Observations

Time (CST) Temp. Windchill Dew Point Humidity Pressure Visibility Wind Dir Wind Speed Gust Speed Precip Events Conditions
12:15 AM 19.4 °F 8.6 °F 17.6 °F 93% 30.01 in 10.0 mi SSW 9.2 mph - N/A   Overcast
12:35 AM 19.4 °F 8.6 °F 17.6 °F 93% 30.01 in 10.0 mi SSW 9.2 mph - N/A   Overcast
12:55 AM 19.4 °F 7.9 °F 15.8 °F 86% 30.01 in 9.0 mi SSW 10.4 mph - N/A   Overcast
1:15 AM 19.4 °F 8.6 °F 17.6 °F 93% 30.01 in 7.0 mi SSW 9.2 mph - N/A   Overcast
1:35 AM 19.4 °F 7.9 °F 17.6 °F 93% 30.01 in 6.0 mi SSW 10.4 mph - N/A   Overcast
1:55 AM 19.4 °F 8.6 °F 17.6 °F 93% 30.02 in 6.0 mi SSW 9.2 mph - N/A   Overcast
2:15 AM 19.4 °F 8.6 °F 17.6 °F 93% 30.02 in 6.0 mi SSW 9.2 mph - N/A   Overcast
2:35 AM 19.4 °F 8.6 °F 17.6 °F 93% 30.01 in 5.0 mi SSW 9.2 mph - N/A   Overcast
2:55 AM 19.4 °F 8.6 °F 17.6 °F 93% 30.01 in 5.0 mi SSW 9.2 mph - N/A   Overcast
3:15 AM 19.4 °F 7.2 °F 17.6 °F 93% 30.01 in 2.5 mi SW 11.5 mph - N/A   Overcast
3:35 AM 19.4 °F 8.6 °F 17.6 °F 93% 30.02 in 1.0 mi SW 9.2 mph - N/A   Overcast
3:55 AM 19.4 °F 8.6 °F 17.6 °F 93% 30.01 in 1.2 mi SW 9.2 mph - N/A   Overcast
4:15 AM 19.4 °F 7.9 °F 17.6 °F 93% 30.01 in 1.8 mi SW 10.4 mph - N/A   Overcast
4:35 AM 19.4 °F 9.5 °F 17.6 °F 93% 30.02 in 2.5 mi SW 8.1 mph - N/A   Overcast
4:55 AM 17.6 °F 8.2 °F 15.8 °F 93% 30.01 in 3.0 mi SSW 6.9 mph - N/A   Overcast
5:15 AM 15.8 °F 6.1 °F 14.0 °F 93% 30.01 in 4.0 mi SSW 6.9 mph - N/A   Mostly Cloudy
5:35 AM 15.8 °F 5.1 °F 12.2 °F 86% 30.01 in 1.0 mi SSW 8.1 mph - N/A   Overcast
5:55 AM 15.8 °F 5.1 °F 12.2 °F 86% 30.02 in 0.5 mi SSW 8.1 mph - N/A   Overcast
6:15 AM 12.2 °F 0.7 °F 10.4 °F 92% 30.01 in 1.8 mi South 8.1 mph - N/A   Overcast
6:35 AM 12.2 °F 1.7 °F 8.6 °F 85% 30.02 in 0.2 mi South 6.9 mph - N/A   Overcast
6:55 AM 10.4 °F -0.4 °F 8.6 °F 92% 30.03 in 0.2 mi SSW 6.9 mph - N/A   Overcast
7:15 AM 10.4 °F -0.4 °F 8.6 °F 92% 30.03 in 0.2 mi South 6.9 mph - N/A   Overcast
7:35 AM 10.4 °F -0.4 °F 8.6 °F 92% 30.03 in 0.2 mi SSW 6.9 mph - N/A   Overcast
7:55 AM 10.4 °F -0.4 °F 8.6 °F 92% 30.03 in 0.2 mi South 6.9 mph - N/A   Overcast
8:15 AM 10.4 °F 2.2 °F 8.6 °F 92% 30.04 in 0.2 mi SSW 4.6 mph - N/A   Overcast
8:35 AM 10.4 °F 0.8 °F 8.6 °F 92% 30.04 in 0.5 mi South 5.8 mph - N/A   Overcast
8:55 AM 10.4 °F 0.8 °F 8.6 °F 92% 30.03 in 0.2 mi South 5.8 mph - N/A   Overcast
9:15 AM 10.4 °F 0.8 °F 8.6 °F 92% 30.03 in 0.2 mi South 5.8 mph - N/A   Overcast
9:35 AM 10.4 °F 0.8 °F 8.6 °F 92% 30.03 in 0.8 mi South 5.8 mph - N/A   Overcast
9:55 AM 12.2 °F 2.9 °F 10.4 °F 92% 30.04 in 5.0 mi South 5.8 mph - N/A   Scattered Clouds
10:15 AM 12.2 °F 1.7 °F 10.4 °F 92% 30.04 in 5.0 mi South 6.9 mph - N/A   Clear
10:35 AM 14.0 °F 2.9 °F 12.2 °F 93% 30.04 in 7.0 mi South 8.1 mph - N/A   Clear
10:55 AM 15.8 °F 6.1 °F 12.2 °F 86% 30.04 in 8.0 mi South 6.9 mph - N/A   Clear
11:15 AM 15.8 °F 6.1 °F 14.0 °F 93% 30.03 in 8.0 mi South 6.9 mph - N/A   Clear
11:35 AM 17.6 °F 7.3 °F 15.8 °F 93% 30.03 in 10.0 mi South 8.1 mph - N/A   Clear
11:55 AM 17.6 °F 6.4 °F 15.8 °F 93% 30.03 in 9.0 mi South 9.2 mph - N/A   Clear
12:15 PM 17.6 °F 7.3 °F 17.6 °F 100% 30.02 in 10.0 mi South 8.1 mph - N/A   Clear
12:35 PM 19.4 °F 7.2 °F 17.6 °F 93% 30.01 in 10.0 mi South 11.5 mph - N/A   Clear
12:55 PM 19.4 °F 7.9 °F 17.6 °F 93% 30.01 in 10.0 mi South 10.4 mph - N/A   Clear
1:15 PM 21.2 °F 8.9 °F 19.4 °F 93% 30.01 in 10.0 mi South 12.7 mph - N/A   Clear
1:35 PM 21.2 °F 10.9 °F 21.2 °F 100% 29.99 in 10.0 mi South 9.2 mph - N/A   Clear
1:55 PM 23.0 °F 11.7 °F 21.2 °F 93% 29.99 in 10.0 mi South 11.5 mph - N/A   Clear
2:15 PM 23.0 °F 11.1 °F 21.2 °F 93% 29.99 in 10.0 mi South 12.7 mph - N/A   Clear
2:35 PM 24.8 °F 14.6 °F 21.2 °F 86% 29.99 in 10.0 mi South 10.4 mph - N/A   Clear
2:55 PM 24.8 °F 14.0 °F 21.2 °F 86% 29.99 in 10.0 mi South 11.5 mph - N/A   Clear
3:15 PM 24.8 °F 14.0 °F 21.2 °F 86% 29.99 in 10.0 mi South 11.5 mph - N/A   Clear
3:35 PM 26.6 °F 16.8 °F 21.2 °F 80% 29.99 in 10.0 mi South 10.4 mph - N/A   Clear
3:55 PM 26.6 °F 16.2 °F 19.4 °F 74% 29.98 in 10.0 mi SSE 11.5 mph - N/A   Clear
4:15 PM 26.6 °F 16.8 °F 19.4 °F 74% 29.98 in 10.0 mi SSE 10.4 mph - N/A   Clear
4:35 PM 24.8 °F 14.6 °F 19.4 °F 80% 29.98 in 10.0 mi South 10.4 mph - N/A   Clear
4:55 PM 24.8 °F 15.3 °F 21.2 °F 86% 29.98 in 10.0 mi South 9.2 mph - N/A   Clear
5:15 PM 24.8 °F 15.3 °F 19.4 °F 80% 29.99 in 10.0 mi South 9.2 mph - N/A   Clear
5:35 PM 24.8 °F 14.6 °F 17.6 °F 74% 29.99 in 10.0 mi SSE 10.4 mph - N/A   Clear
5:55 PM 23.0 °F 12.4 °F 17.6 °F 80% 29.99 in 10.0 mi SSE 10.4 mph - N/A   Clear
6:15 PM 21.2 °F 11.7 °F 17.6 °F 86% 29.99 in 10.0 mi SSE 8.1 mph - N/A   Clear
6:35 PM 19.4 °F 7.9 °F 15.8 °F 86% 29.98 in 10.0 mi SSE 10.4 mph - N/A   Clear
6:55 PM 17.6 °F 5.0 °F 14.0 °F 86% 29.99 in 10.0 mi SSE 11.5 mph - N/A   Clear
7:15 PM 17.6 °F 5.7 °F 15.8 °F 93% 29.99 in 10.0 mi South 10.4 mph - N/A   Clear
7:35 PM 19.4 °F 7.2 °F 17.6 °F 93% 30.00 in 10.0 mi South 11.5 mph - N/A   Clear
8:15 PM 17.6 °F 7.3 °F 15.8 °F 93% 29.99 in 10.0 mi South 8.1 mph - N/A   Clear
8:35 PM 17.6 °F 6.4 °F 15.8 °F 93% 29.99 in 10.0 mi South 9.2 mph - N/A   Clear
8:55 PM 17.6 °F 6.4 °F 12.2 °F 79% 29.99 in 10.0 mi South 9.2 mph - N/A   Clear
9:15 PM 17.6 °F 5.0 °F 14.0 °F 86% 29.99 in 10.0 mi South 11.5 mph - N/A   Clear
9:35 PM 17.6 °F 5.0 °F 12.2 °F 79% 29.99 in 10.0 mi South 11.5 mph - N/A   Clear
9:55 PM 15.8 °F 2.7 °F 12.2 °F 86% 29.98 in 10.0 mi South 11.5 mph - N/A   Clear
10:15 PM 17.6 °F 5.7 °F 14.0 °F 86% 29.99 in 9.0 mi South 10.4 mph - N/A   Clear
10:35 PM 15.8 °F 2.7 °F 14.0 °F 93% 29.99 in 10.0 mi South 11.5 mph - N/A   Clear
10:55 PM 14.0 °F 1.2 °F 12.2 °F 93% 29.99 in 10.0 mi South 10.4 mph - N/A   Clear
11:15 PM 14.0 °F 1.2 °F 12.2 °F 93% 29.99 in 10.0 mi South 10.4 mph - N/A   Clear
11:35 PM 12.2 °F -0.2 °F 12.2 °F 100% 29.99 in 8.0 mi South 9.2 mph - N/A   Clear
11:55 PM 12.2 °F 1.7 °F 12.2 °F 100% 29.99 in 7.0 mi South 6.9 mph - N/A   Clear